Hourly Data Report for January 24, 2004

SHERBROOKE A
QUEBEC

45°26'00.000" N
71°41'00.000" W
241.40 m
7028124
71610
YSC

Download Data

Hourly Data (January 2004)
Hourly Data Report for January 24, 2004
TIME
LST
Temp Definition
°C
Dew Point Definition
°C
Rel Hum Definition
%
Precip. Amount Definition
mm

Wind Dir Definition
10's deg

Wind Spd Definition
km/h
Visibility Definition
km
Stn Press Definition
kPa
Hmdx Definition


Wind Chill Definition


Weather Definition


00:00 -22.5 -28.9 56   26 17 15.0 97.65   -33  
01:00 -22.8 -28.9 57   25 11 15.0 97.65   -31  
02:00 -23.9 -29.5 60   26 9 15.0 97.67   -31  
03:00 -24.6 -30.0 61   24 7 15.0 97.66   -31  
04:00 -24.6 -30.1 60   24 9 15.0 97.64   -32  
05:00 -25.7 -30.8 62   24 7 15.0 97.64   -32  
06:00 -25.9 -31.0 62   25 11 15.0 97.64   -35  
07:00 -27.1 -32.3 61   26 9 15.0 97.70   -35  
08:00 -25.8 -31.0 62   25 11 24.1 97.74   -35 Clear
09:00 -24.8 -30.4 60   27 17 22.5 97.76   -36 Mainly Clear
10:00 -23.9 -30.5 54   28 19 24.1 97.78   -35 Mainly Clear
11:00 -22.5 -30.0 50   27 20 24.1 97.78   -34 Mostly Cloudy
12:00 -21.8 -29.7 49   28 22 24.1 97.72   -33 Mostly Cloudy
13:00 -21.2 -29.5 47   25 26 19.3 97.72   -33 Mostly Cloudy
14:00 -21.2 -29.3 48   28 19 19.3 97.73   -32 Mostly Cloudy
15:00 -21.4 -29.2 49   27 24 24.1 97.78   -33 Mostly Cloudy
16:00 -22.3 -30.0 50   27 19 24.1 97.88   -33 Mostly Cloudy
17:00 -23.0 -30.1 52   27 22 24.1 97.95   -35 Mostly Cloudy
18:00 -23.8 -30.5 54   26 20 15.0 98.09   -35  
19:00 -23.8 -30.5 54   26 19 15.0 98.16   -35  
20:00 -23.8 -30.2 56   27 32 8.0 98.23   -38 Snow
21:00 -24.6 -31.2 54   29 20 15.0 98.34   -36  
22:00 -25.6 -32.6 52   27 13 15.0 98.45   -35  
23:00 -27.2 -34.4 50   27 13 15.0 98.54   -37  

Notes on Data Quality.

Legend

  • E = Estimated
  • M = Missing
  • NA = Not Available*
  • [empty] = Indicates an unobserved value
Date modified: